This is the latest recevied weather packets stored in our database for station/object MeshWX-1. If no packets are shown the sender has not sent any weather packets the latest 10 day(s).
| Time | Temp. | Humidity | Pressure | Rain* | Wind** | Luminosity | Snow |
|---|---|---|---|---|---|---|---|
| 1787841216 | 38.89° C | 20% | 998.3 hPa | - | - | - | - |
| 1787841017 | 38.89° C | 20% | 998.3 hPa | - | - | - | - |
| 1787840903 | 39.44° C | 20% | 998.7 hPa | - | - | - | - |
| 1787838995 | 39.44° C | 20% | 998.7 hPa | - | - | - | - |
| 1787838839 | 39.44° C | 20% | 998.7 hPa | - | - | - | - |
| 1787836835 | 38.89° C | 21% | 998.9 hPa | - | - | - | - |
| 1787836679 | 38.89° C | 21% | 998.9 hPa | - | - | - | - |
| 1787836546 | 38.33° C | 23% | 999.1 hPa | - | - | - | - |
| 1787834614 | 38.33° C | 23% | 999.1 hPa | - | - | - | - |
| 1787834500 | 38.33° C | 23% | 999.1 hPa | - | - | - | - |
| 1787832394 | 37.78° C | 24% | 999.4 hPa | - | - | - | - |
| 1787832304 | 37.78° C | 24% | 999.4 hPa | - | - | - | - |
| 1787832189 | 37.78° C | 28% | 999.9 hPa | - | - | - | - |
| 1787830174 | 37.78° C | 28% | 999.9 hPa | - | - | - | - |
| 1787830072 | 37.78° C | 28% | 999.9 hPa | - | - | - | - |
| 1787827894 | 36.67° C | 31% | 1000.4 hPa | - | - | - | - |
| 1787827840 | 36.67° C | 31% | 1000.4 hPa | - | - | - | - |
| 1787827721 | 35° C | 34% | 1000.5 hPa | - | - | - | - |
| 1787825614 | 35° C | 34% | 1000.5 hPa | - | - | - | - |
| 1787825536 | 35° C | 34% | 1000.5 hPa | - | - | - | - |
| 1787823273 | 33.89° C | 37% | 1000.8 hPa | - | - | - | - |
| 1787823195 | 33.89° C | 37% | 1000.8 hPa | - | - | - | - |
| 1787823109 | 33.33° C | 38% | 1001.1 hPa | - | - | - | - |
| 1787820873 | 33.33° C | 38% | 1001.1 hPa | - | - | - | - |
| 1787820837 | 33.33° C | 38% | 1001.1 hPa | - | - | - | - |
* Rain since midnight (hover to see other rain measurements)
** Current wind speed in m/s (hover to see current wind gust speed)